Probability
3 10 45 71 58 10 0 0 0 0 0 0 0 0 0 0 3 3 10 13 29 32 58 77 81 81 81 84 87 81 77 84 84 81 84 81 74 74 71 74 71 74 65 61 68 61 65 58 65
23 52 65 55 19 0 0 0 0 0 0 0 3 3 0 0 0 3 6 19 29 32 48 61 87 90 87 94 90 94 90 77 81 90 87 84 81 74 74 74 74 81 71 55 52 55 58 58 55
35 58 45 26 0 0 0 0 0 0 0 0 3 3 3 3 0 6 13 19 23 42 55 84 87 90 90 90 97 97 87 81 84 87 84 84 84 77 77 77 77 68 74 74 55 52 58 55 45
58 42 13 3 0 0 0 0 0 0 0 0 3 3 3 6 6 13 16 26 26 42 48 81 84 81 84 87 90 97 84 81 84 81 77 81 81 77 81 81 74 68 68 71 61 52 52 52 42
52 19 3 0 0 0 0 0 0 0 0 3 3 3 3 6 6 10 19 35 32 32 52 71 84 87 90 87 90 87 87 77 77 74 81 77 77 71 68 68 68 61 61 61 55 48 52 39 35
16 3 0 0 0 0 0 0 0 0 0 3 3 6 10 6 6 13 19 26 26 35 42 71 87 87 90 90 87 84 81 81 77 68 74 71 71 65 61 61 61 58 55 58 58 58 48 32 35
3 0 0 0 0 0 0 0 0 0 0 3 3 6 3 6 10 16 16 16 32 32 45 52 74 84 84 87 87 81 81 77 74 71 68 74 74 68 61 58 52 52 55 55 52 55 45 35 32
0 0 0 0 0 0 0 0 0 0 0 0 0 0 3 10 10 13 16 16 23 32 32 45 68 68 65 71 81 77 71 71 71 68 58 61 68 65 61 58 55 48 48 42 35 39 35 35 52
0 0 0 0 0 0 0 0 0 0 0 0 0 6 6 10 6 10 10 16 26 29 45 45 61 77 55 42 61 77 77 68 68 61 58 68 68 55 55 48 65 48 42 29 35 48 52 52 55
0 0 0 0 0 0 0 0 0 0 0 3 3 3 6 10 10 16 10 10 26 32 39 48 61 55 48 45 87 87 77 87 84 87 81 77 77 77 32 58 65 61 52 55 55 65 61 48 39
0 0 0 0 0 0 0 0 0 0 0 3 3 3 3 3 6 10 6 23 32 45 45 52 68 84 61 84 87 77 84 90 84 77 81 84 74 68 58 55 65 68 65 58 68 74 32 35 35
0 0 0 0 0 0 0 0 0 0 0 0 0 3 3 3 0 10 13 29 39 45 55 58 71 84 94 84 77 74 77 84 77 77 84 84 84 74 74 74 68 77 77 84 71 74 68 65 45
0 0 0 0 0 0 0 0 0 0 0 0 0 0 3 3 6 13 16 16 35 55 58 74 87 90 94 94 90 74 87 71 81 90 87 77 77 77 77 84 87 74 81 81 84 77 71 68 65
0 0 0 0 0 0 0 0 0 0 0 0 0 0 0 3 6 13 16 26 29 45 48 81 81 90 94 94 94 94 84 87 77 84 81 84 84 84 81 74 81 84 81 84 84 77 74 74 71
0 0 0 0 0 0 0 0 0 0 0 0 0 0 3 3 3 13 19 39 42 45 68 81 84 90 94 94 90 90 87 65 81 87 77 77 81 84 81 84 81 84 84 87 81 77 68 68 65
0 0 0 0 0 0 0 0 0 0 0 0 0 0 0 0 3 13 42 52 61 65 84 87 58 87 94 94 90 90 84 90 90 90 87 81 81 74 87 87 81 77 77 81 84 71 68 61 58
0 0 0 0 0 0 0 0 0 0 0 0 0 0 0 0 13 32 35 48 58 81 87 94 94 94 90 90 94 90 90 90 90 87 87 81 77 71 77 84 81 71 74 71 61 71 71 71 61
0 0 0 0 0 0 3 3 0 0 0 0 0 6 3 6 19 39 42 55 68 77 87 94 94 94 94 94 94 94 90 87 87 84 84 74 74 65 71 74 68 68 61 61 68 71 74 74 65
0 0 0 0 0 0 3 3 3 0 0 3 3 3 10 23 23 29 45 48 61 74 84 94 94 94 94 90 90 90 87 87 87 81 74 77 77 68 74 71 71 68 71 65 58 71 61 74 71
0 0 0 0 0 0 0 3 3 3 0 0 0 6 16 19 29 42 52 45 58 87 87 90 90 87 90 90 90 90 90 87 87 81 77 74 68 68 58 74 74 68 68 68 65 68 71 71 65
0 0 0 0 0 0 0 0 6 6 6 3 6 13 10 26 26 32 39 58 68 77 81 77 81 84 84 84 84 87 87 77 77 81 77 74 74 74 77 74 74 74 68 65 65 65 71 71 68
0 0 0 0 0 0 0 0 6 3 10 13 6 10 10 19 26 42 52 65 65 71 74 81 81 81 81 84 81 77 77 77 77 77 77 74 74 74 71 71 61 68 65 74 65 65 68 68 65
0 0 0 0 0 0 0 0 0 10 10 16 13 10 13 23 32 35 48 58 61 68 71 81 81 81 81 81 81 77 77 81 81 77 77 77 77 74 71 71 68 65 68 71 71 71 74 74 71
0 0 0 0 0 0 0 0 0 0 19 16 16 10 16 16 32 42 48 68 61 65 68 74 81 77 77 81 81 81 81 81 81 81 77 77 77 77 71 71 71 68 71 68 68 74 77 74 74
0 0 0 0 0 0 0 0 0 3 3 16 23 13 19 29 35 42 52 68 65 65 71 77 77 77 74 77 81 81 81 77 77 81 77 77 74 74 77 71 71 74 71 71 71 74 71 68 71
0 0 0 0 0 0 0 0 0 0 10 13 19 26 23 29 29 39 48 61 61 61 71 74 74 74 74 74 77 77 77 74 74 74 71 68 65 68 74 71 68 71 71 61 71 65 71 68 65
0 0 0 0 0 0 0 0 6 10 13 16 19 19 26 29 35 39 42 52 52 61 71 71 74 74 74 74 74 74 74 74 74 71 68 68 68 65 61 61 65 68 61 65 65 61 61 61 65
0 0 0 0 0 0 0 0 3 13 13 13 23 23 26 35 39 42 42 55 61 61 71 71 71 71 71 74 74 74 74 71 71 71 68 65 61 61 48 48 55 61 61 55 58 58 61 58 65
0 0 0 0 0 0 0 0 0 13 16 16 23 19 32 39 32 42 45 48 61 61 65 71 71 68 68 65 71 71 71 71 71 65 61 61 61 58 61 55 61 55 55 45 45 45 52 55 45
0 0 0 0 0 0 0 3 0 3 16 16 23 26 19 35 32 29 42 55 65 68 68 71 71 68 68 65 65 68 68 65 68 61 61 58 58 58 58 52 48 48 45 42 42 39 42 45 45
Height
5887 5886 5885 5884 5883 5884 5883 5882 5880 5878 5877 5876 5874 5874 5872 5872 5872 5872 5868 5867 5867 5866 5866 5866 5865 5865 5866 5866 5866 5866 5867 5867 5867 5867 5867 5868 5868 5869 5870 5871 5871 5872 5873 5874 5874 5875 5875 5876 5876
5890 5889 5888 5887 5889 5888 5886 5884 5883 5881 5880 5878 5877 5876 5875 5874 5873 5871 5869 5869 5869 5868 5868 5868 5867 5867 5867 5868 5868 5868 5868 5869 5868 5869 5869 5869 5870 5870 5872 5873 5873 5874 5874 5875 5876 5877 5877 5877 5878
5894 5891 5889 5892 5894 5892 5890 5887 5886 5884 5882 5880 5880 5879 5877 5876 5874 5873 5871 5871 5870 5870 5869 5869 5869 5869 5869 5870 5870 5870 5870 5870 5870 5870 5871 5871 5872 5873 5874 5874 5875 5876 5876 5877 5878 5879 5879 5880 5880
5896 5893 5895 5898 5897 5895 5893 5891 5889 5887 5885 5883 5882 5881 5879 5878 5876 5875 5874 5873 5872 5872 5871 5871 5871 5871 5871 5872 5872 5872 5872 5872 5872 5872 5873 5873 5874 5875 5875 5876 5877 5878 5878 5879 5880 5881 5881 5882 5882
5896 5897 5900 5902 5900 5897 5895 5893 5892 5890 5887 5886 5885 5883 5881 5880 5879 5877 5876 5875 5875 5874 5874 5873 5873 5874 5874 5874 5874 5874 5874 5874 5874 5875 5875 5875 5876 5877 5877 5878 5879 5880 5880 5881 5882 5882 5883 5883 5884
5900 5903 5906 5905 5903 5901 5898 5896 5895 5893 5890 5889 5887 5886 5884 5883 5882 5880 5879 5878 5877 5876 5876 5876 5876 5876 5876 5876 5876 5876 5876 5876 5877 5877 5877 5878 5878 5879 5880 5880 5881 5881 5882 5883 5883 5884 5884 5885 5885
5906 5908 5909 5908 5906 5904 5902 5900 5898 5895 5893 5892 5890 5889 5887 5886 5884 5883 5882 5880 5880 5879 5878 5878 5878 5878 5878 5878 5878 5878 5878 5879 5879 5879 5880 5880 5880 5881 5881 5882 5883 5883 5884 5885 5885 5886 5886 5887 5887
5911 5913 5912 5911 5909 5907 5905 5903 5901 5898 5897 5895 5893 5891 5890 5889 5887 5885 5884 5883 5882 5881 5881 5881 5880 5881 5881 5880 5880 5881 5881 5881 5881 5882 5882 5882 5883 5883 5884 5884 5885 5885 5886 5886 5887 5887 5888 5888 5888
5915 5916 5915 5914 5912 5910 5908 5906 5904 5902 5900 5898 5896 5895 5893 5891 5890 5888 5887 5886 5885 5884 5884 5883 5883 5883 5883 5883 5883 5883 5883 5883 5884 5884 5884 5885 5885 5886 5886 5887 5887 5887 5888 5888 5889 5889 5889 5889 5890
5919 5919 5917 5916 5914 5912 5911 5909 5907 5905 5903 5901 5899 5898 5896 5894 5893 5891 5890 5889 5888 5887 5886 5886 5886 5886 5886 5885 5885 5886 5886 5885 5886 5886 5886 5887 5887 5888 5888 5888 5889 5889 5889 5890 5890 5890 5890 5890 5890
5921 5921 5919 5918 5916 5915 5913 5912 5910 5908 5906 5904 5902 5901 5899 5897 5896 5894 5893 5892 5891 5890 5889 5889 5888 5888 5888 5888 5888 5888 5888 5888 5888 5888 5888 5889 5889 5890 5890 5890 5890 5891 5891 5891 5891 5891 5891 5891 5891
5924 5923 5921 5920 5919 5918 5916 5915 5913 5911 5910 5908 5905 5904 5902 5900 5899 5897 5896 5895 5894 5893 5892 5891 5891 5891 5891 5891 5891 5891 5891 5890 5889 5890 5890 5890 5891 5891 5890 5891 5892 5892 5892 5892 5892 5892 5892 5892 5892
5926 5925 5923 5923 5922 5920 5919 5917 5916 5914 5912 5910 5909 5907 5905 5903 5902 5901 5899 5898 5897 5895 5895 5894 5894 5894 5894 5894 5894 5893 5893 5891 5892 5892 5892 5892 5892 5892 5891 5891 5893 5893 5893 5892 5893 5893 5892 5892 5892
5927 5927 5926 5925 5924 5923 5921 5920 5919 5917 5915 5913 5912 5910 5908 5907 5906 5904 5903 5901 5900 5898 5898 5897 5897 5896 5896 5896 5896 5896 5895 5894 5894 5894 5894 5894 5894 5894 5893 5894 5894 5893 5893 5893 5893 5893 5893 5892 5892
5927 5928 5928 5927 5926 5925 5924 5923 5922 5920 5918 5916 5915 5913 5911 5910 5909 5907 5906 5904 5903 5902 5901 5900 5899 5899 5898 5898 5898 5898 5897 5897 5896 5896 5896 5895 5895 5895 5895 5895 5895 5894 5894 5894 5893 5893 5893 5893 5892
5928 5929 5930 5930 5928 5927 5928 5926 5925 5923 5921 5919 5917 5916 5914 5913 5912 5910 5908 5907 5906 5905 5904 5903 5902 5901 5901 5900 5900 5900 5899 5898 5898 5898 5897 5897 5896 5896 5896 5896 5895 5895 5894 5894 5894 5893 5893 5893 5892
5929 5931 5931 5931 5930 5929 5930 5928 5927 5925 5924 5922 5921 5919 5917 5916 5915 5913 5911 5910 5909 5907 5906 5905 5905 5904 5903 5902 5902 5901 5901 5900 5899 5899 5899 5898 5897 5897 5896 5896 5896 5895 5895 5894 5894 5893 5893 5893 5892
5930 5932 5933 5932 5932 5932 5932 5931 5929 5928 5926 5925 5923 5922 5920 5919 5917 5916 5914 5913 5911 5910 5909 5908 5907 5906 5905 5904 5903 5903 5902 5901 5901 5900 5900 5899 5898 5897 5897 5896 5896 5895 5895 5894 5894 5894 5893 5893 5892
5931 5932 5934 5934 5933 5934 5933 5932 5931 5929 5929 5927 5926 5924 5923 5921 5920 5918 5917 5915 5914 5913 5912 5910 5909 5908 5907 5906 5905 5904 5903 5903 5902 5901 5900 5900 5899 5898 5897 5896 5896 5895 5894 5894 5894 5893 5893 5892 5891
5930 5932 5934 5934 5934 5935 5934 5934 5933 5931 5930 5929 5928 5926 5925 5924 5922 5921 5919 5918 5916 5915 5914 5912 5911 5910 5909 5908 5907 5905 5904 5903 5903 5902 5901 5899 5899 5898 5897 5896 5896 5895 5894 5894 5893 5893 5892 5892 5891
5930 5932 5933 5934 5934 5935 5935 5934 5934 5932 5932 5931 5929 5928 5927 5925 5924 5923 5921 5920 5918 5917 5916 5914 5913 5912 5910 5909 5908 5907 5905 5904 5903 5902 5901 5900 5899 5898 5897 5896 5895 5894 5894 5893 5893 5892 5892 5891 5890
5928 5930 5932 5932 5933 5934 5936 5935 5934 5933 5933 5932 5931 5929 5928 5927 5926 5924 5923 5922 5920 5919 5917 5916 5915 5913 5912 5911 5909 5908 5906 5905 5904 5903 5901 5900 5899 5898 5897 5896 5895 5894 5893 5893 5892 5892 5891 5890 5889
5926 5928 5930 5932 5932 5933 5934 5935 5934 5932 5932 5932 5931 5930 5929 5928 5927 5925 5924 5923 5922 5920 5919 5917 5916 5915 5913 5912 5910 5909 5907 5905 5904 5903 5902 5901 5900 5898 5897 5896 5895 5894 5893 5892 5891 5891 5890 5889 5888
5923 5926 5927 5930 5931 5932 5934 5934 5934 5932 5931 5931 5931 5930 5929 5928 5927 5926 5925 5924 5923 5921 5920 5919 5917 5916 5914 5913 5911 5910 5908 5906 5905 5903 5902 5901 5900 5899 5897 5896 5895 5893 5892 5891 5890 5889 5888 5887 5886
5920 5923 5925 5927 5929 5931 5933 5932 5933 5933 5931 5930 5930 5930 5929 5927 5927 5926 5925 5924 5923 5922 5921 5919 5918 5917 5915 5914 5912 5910 5909 5907 5905 5904 5903 5902 5900 5899 5897 5896 5894 5893 5891 5890 5889 5888 5887 5885 5884
5917 5920 5923 5926 5927 5929 5931 5931 5932 5931 5931 5930 5930 5929 5928 5927 5926 5926 5925 5924 5923 5922 5921 5920 5918 5917 5915 5914 5912 5910 5909 5907 5906 5904 5903 5901 5900 5898 5897 5895 5894 5892 5891 5889 5888 5886 5885 5884 5882
5914 5917 5921 5924 5925 5927 5929 5929 5928 5928 5928 5928 5928 5927 5927 5925 5925 5925 5924 5923 5922 5921 5921 5919 5918 5917 5915 5914 5912 5910 5909 5907 5906 5904 5903 5901 5899 5898 5896 5894 5893 5891 5890 5888 5886 5885 5883 5882 5880
5910 5914 5918 5920 5921 5922 5925 5926 5926 5926 5926 5925 5925 5926 5925 5924 5923 5923 5923 5922 5922 5921 5920 5919 5918 5916 5915 5913 5912 5910 5908 5907 5905 5904 5902 5900 5899 5897 5895 5893 5892 5890 5888 5887 5885 5883 5882 5880 5878
5906 5909 5912 5915 5918 5920 5922 5925 5923 5923 5923 5923 5923 5923 5922 5922 5922 5921 5921 5921 5920 5919 5919 5918 5917 5915 5914 5912 5911 5909 5908 5906 5904 5903 5901 5899 5898 5896 5894 5892 5890 5889 5887 5885 5883 5882 5880 5878 5876
5901 5904 5908 5911 5913 5915 5918 5922 5919 5919 5919 5920 5920 5920 5920 5920 5919 5919 5919 5918 5918 5918 5917 5916 5915 5914 5913 5911 5910 5908 5907 5905 5903 5902 5900 5898 5896 5894 5893 5891 5889 5887 5885 5883 5881 5879 5877 5875 5874
Wind_Speed
20 19 20 20 21 15 12 13 12 12 11 11 11 10 10 9 9 9 10 10 9 9 9 9 9 9 9 8 8 8 8 7 7 8 8 8 8 9 9 9 9 8 8 9 9 9 9 9 9
20 19 21 23 17 13 13 13 12 12 12 11 11 11 11 11 11 10 10 10 9 9 9 9 9 9 9 9 9 8 9 8 8 8 9 9 9 10 10 10 9 9 8 9 9 9 8 8 9
20 21 24 19 10 12 13 13 13 12 12 12 12 11 12 12 12 11 11 11 10 10 9 9 9 9 9 9 8 8 8 9 8 9 9 9 10 10 10 10 10 9 9 9 9 9 9 9 10
21 26 23 14 11 12 13 13 13 13 13 14 14 13 13 13 12 12 12 12 11 11 10 10 10 10 9 9 9 9 9 10 9 9 10 10 10 11 10 10 10 10 10 10 9 9 9 10 10
25 24 17 12 11 12 13 13 13 13 13 14 14 14 14 14 13 13 13 13 13 13 12 11 11 10 10 10 9 9 10 10 10 10 11 11 11 11 11 10 10 10 10 9 9 9 9 9 8
23 19 13 11 11 12 13 13 13 13 14 14 15 14 14 14 14 14 14 14 14 14 13 12 11 10 10 10 9 9 9 10 10 10 10 10 11 11 10 10 10 10 10 9 9 8 8 8 8
19 14 11 11 11 12 12 12 13 14 14 15 15 14 14 14 14 14 14 14 14 14 13 11 10 10 10 10 10 10 10 10 10 9 9 10 11 11 10 10 10 10 10 9 8 8 8 8 8
16 14 12 10 10 11 12 13 14 14 14 15 16 15 14 15 15 14 14 14 14 13 13 11 11 11 10 10 10 10 10 10 9 9 8 9 10 10 10 9 9 9 9 8 8 7 7 7 7
14 13 10 8 9 11 12 13 14 15 14 14 15 15 15 15 15 15 14 14 14 13 13 12 11 11 11 11 11 11 10 10 9 9 9 9 9 9 9 9 8 8 7 7 6 6 6 6 5
10 9 8 10 10 11 12 14 15 16 15 15 15 15 15 16 16 15 15 14 14 13 12 12 12 12 12 12 11 11 10 10 10 9 9 8 8 8 8 8 8 7 6 6 5 5 5 5 4
8 7 9 11 11 12 13 14 14 15 16 15 16 16 16 16 16 16 16 15 14 13 13 12 12 12 12 12 11 11 10 10 10 10 9 8 7 7 7 6 5 5 4 4 4 4 3 3 2
7 7 9 11 11 12 13 13 13 14 15 15 16 16 17 17 18 17 16 15 14 13 12 12 12 12 12 11 11 10 10 10 10 10 8 8 7 6 5 5 4 4 4 4 4 3 2 2 1
6 7 9 10 11 12 13 13 13 14 15 15 15 16 17 17 17 17 17 16 15 14 13 13 12 11 11 11 10 9 9 9 9 10 9 8 7 5 4 4 4 4 4 4 3 3 3 2 1
5 6 8 9 10 12 12 12 12 14 15 15 15 16 17 17 16 17 16 15 15 14 13 13 12 11 11 10 10 9 7 8 8 8 8 7 7 6 5 4 3 3 3 3 3 3 2 2 2
5 5 5 7 8 10 11 11 12 13 14 14 15 16 16 16 16 16 16 15 15 14 13 13 12 10 10 9 9 8 7 7 7 7 7 7 6 6 5 4 3 2 2 2 2 2 2 2 2
4 3 3 5 6 7 9 11 11 12 14 15 15 15 15 15 16 16 15 15 14 14 13 12 11 10 10 9 9 8 7 6 6 6 6 6 5 4 4 3 3 3 2 2 2 2 3 3 3
2 1 1 3 4 6 8 9 10 12 13 14 15 15 14 14 15 15 15 14 14 14 13 12 11 11 10 9 9 7 7 6 6 6 6 5 5 4 4 4 3 3 3 3 3 3 3 3 4
5 3 1 1 2 4 5 7 8 11 12 13 14 14 14 14 15 14 14 14 13 13 13 12 11 11 10 10 8 8 7 6 6 7 6 6 5 4 4 4 4 4 3 3 3 4 4 4 5
6 4 3 2 1 1 4 6 7 8 10 12 13 13 13 13 14 14 14 14 13 13 13 12 12 11 10 10 8 8 7 6 6 6 7 6 5 5 5 5 4 4 4 4 4 4 5 5 6
9 7 5 4 3 3 3 5 6 7 8 10 11 11 11 12 13 14 14 14 13 13 12 12 12 12 11 10 10 8 7 6 6 6 6 7 7 6 6 6 5 5 5 5 5 5 6 6 7
11 10 8 6 4 3 4 4 6 7 8 8 9 9 9 11 12 13 13 13 13 13 12 12 12 12 11 11 10 10 9 7 7 7 8 8 7 7 7 7 7 6 6 6 5 6 6 6 7
13 12 9 7 5 5 4 5 7 8 7 8 9 8 8 9 10 11 12 12 12 12 12 12 12 12 12 11 11 10 10 9 8 8 8 8 8 8 9 8 8 8 7 7 7 7 7 8 9
14 12 11 9 7 7 7 7 8 9 8 8 8 8 8 8 9 10 11 11 11 11 11 11 11 12 12 12 12 12 11 10 9 9 9 9 9 9 9 9 9 9 9 9 9 9 9 9 9
14 12 10 10 10 11 10 8 9 11 10 8 8 8 8 8 8 9 9 10 10 10 10 11 11 11 12 12 12 12 12 11 10 9 9 9 9 10 10 10 10 10 10 10 10 10 10 10 10
16 14 13 13 14 12 10 10 12 12 10 9 8 8 8 9 8 8 9 9 9 9 10 10 11 12 12 12 12 12 12 11 11 10 10 10 10 10 11 11 11 11 11 11 11 10 10 10 11
18 17 15 13 13 12 11 13 14 13 11 11 10 10 9 9 9 9 9 9 9 9 9 10 11 12 12 12 12 12 12 11 11 11 11 11 11 11 12 11 11 11 11 11 11 11 11 12 12
19 18 16 15 13 12 12 15 15 14 13 14 12 12 12 10 10 10 9 9 9 9 10 11 11 12 13 13 13 13 12 12 12 12 12 12 12 12 12 12 12 12 12 12 12 12 12 12 13
22 20 17 18 17 15 13 14 15 17 17 16 13 13 13 12 11 11 10 10 10 10 10 11 12 12 13 13 13 13 12 12 13 13 12 12 12 12 12 12 13 13 13 13 13 13 13 13 14
23 23 21 20 19 17 15 15 15 18 18 17 16 14 14 14 13 12 11 11 11 11 11 11 12 13 13 13 13 13 13 13 13 13 13 13 13 13 13 13 13 13 14 14 14 14 14 14 15
25 24 23 23 22 19 18 14 15 18 18 17 16 15 14 15 14 13 13 12 12 11 12 12 13 13 14 14 13 13 14 14 13 13 14 14 14 14 14 14 14 14 14 15 15 15 15 16 15
Wind_Direction
66 67 67 64 58 53 49 51 53 55 58 59 59 58 57 55 55 58 65 68 68 71 74 74 73 79 85 90 93 99 102 106 107 107 108 111 118 122 122 115 113 113 112 113 115 114 111 117 113
68 70 66 57 51 43 47 47 50 51 55 56 56 54 55 55 56 58 64 69 66 70 71 72 75 79 83 89 93 97 98 97 100 106 107 107 112 118 118 112 113 112 110 110 112 114 110 109 107
71 67 60 53 43 44 48 50 50 50 51 54 55 55 54 55 59 61 63 65 64 69 70 71 76 80 84 88 90 93 94 93 96 104 109 112 115 117 116 113 112 109 108 108 110 110 108 103 103
72 64 59 49 39 46 51 54 54 54 55 57 57 54 53 56 58 58 59 60 64 68 70 75 78 81 85 87 89 92 94 92 94 101 106 110 114 115 117 113 112 111 112 109 111 110 103 105 102
67 61 56 42 39 45 53 56 56 57 58 58 56 53 55 56 58 58 58 60 64 69 72 76 79 79 84 86 88 92 91 90 93 99 106 107 110 116 115 113 113 113 114 110 108 104 101 103 101
64 58 49 40 41 45 48 53 55 54 55 57 57 54 56 57 59 59 59 61 64 68 70 75 77 79 85 87 89 90 90 89 94 100 103 108 111 112 112 110 112 113 113 109 105 101 102 104 102
70 64 54 41 39 46 52 55 53 53 53 54 56 55 57 58 60 60 59 60 63 68 71 74 78 78 81 83 84 85 90 92 93 96 98 98 104 108 108 109 108 110 110 109 104 100 101 102 100
74 72 58 39 36 47 54 55 54 52 50 52 54 55 56 58 60 61 60 58 60 65 67 75 78 79 80 80 81 80 84 88 91 89 96 101 100 103 107 107 106 106 108 108 105 102 100 101 99
71 72 63 48 43 51 54 55 54 52 51 52 55 56 56 58 59 59 59 59 60 63 65 72 76 79 80 81 80 80 84 87 90 90 93 103 102 100 103 104 106 107 107 106 105 104 101 104 99
72 70 65 57 53 54 54 55 54 52 52 54 54 55 56 57 56 56 57 58 61 63 64 70 75 78 78 79 80 82 82 85 86 88 92 99 99 97 97 96 99 100 97 97 101 106 99 104 101
77 66 69 61 55 56 53 53 50 50 51 53 54 54 55 57 55 53 54 55 58 62 65 69 76 77 76 78 79 79 79 80 84 85 85 91 97 98 94 90 95 98 95 95 101 102 103 105 94
74 69 71 66 58 55 54 54 49 48 51 53 53 54 55 55 54 55 54 56 58 60 66 67 74 76 76 76 77 78 76 76 76 78 79 80 86 88 92 88 95 99 94 93 95 95 93 98 87
70 62 65 68 62 55 55 55 47 49 52 53 52 53 55 53 53 54 53 55 57 59 64 65 68 71 72 72 73 74 73 76 75 74 75 77 77 78 71 71 76 81 87 83 85 87 81 89 70
81 61 56 64 59 54 51 49 39 45 46 48 48 50 51 51 50 50 50 51 53 57 61 62 64 63 65 67 68 69 70 70 68 69 67 69 69 68 70 67 65 72 80 83 77 72 64 56 32
111 86 57 57 53 49 45 41 34 35 42 45 46 47 48 48 46 46 46 47 50 54 57 57 56 57 60 62 62 65 69 72 68 66 59 58 61 61 63 61 63 60 53 54 50 52 46 32 10
97 89 56 51 48 40 41 40 34 32 39 42 43 43 43 44 42 43 44 46 48 50 52 51 52 52 54 56 55 55 57 63 60 55 47 50 53 49 47 43 38 35 34 41 40 30 21 16 358
142 179 12 51 49 41 40 37 31 30 34 37 39 39 39 39 40 41 42 45 46 46 47 45 48 47 47 49 50 49 50 51 47 43 37 33 37 36 34 25 20 26 20 22 22 16 7 355 343
172 194 268 13 48 37 22 23 28 27 24 29 31 34 34 36 39 39 39 40 41 41 42 42 43 43 42 40 38 38 42 45 42 35 31 25 21 12 3 358 356 353 357 1 5 356 360 352 336
183 193 194 255 290 7 354 4 9 19 18 19 24 28 29 29 32 35 34 34 34 35 38 37 38 37 35 33 33 29 31 35 32 24 18 14 7 358 355 346 343 343 335 335 337 335 338 333 331
202 208 206 240 252 283 333 347 348 358 7 11 14 23 29 28 29 30 30 31 32 32 33 33 33 32 30 28 27 23 17 20 17 11 9 8 4 359 359 349 345 335 332 322 323 321 321 321 321
209 211 210 228 247 270 288 320 325 337 357 359 4 12 22 26 26 25 27 28 28 29 31 32 31 30 28 25 24 21 12 4 359 357 360 360 357 356 352 344 340 332 333 332 328 327 318 316 318
217 216 210 223 240 251 268 288 300 305 331 342 350 0 11 15 16 16 20 22 23 24 28 29 29 26 24 20 18 14 11 12 5 359 1 360 356 350 347 343 334 327 319 319 324 322 316 316 317
215 213 213 219 230 241 256 258 277 291 301 320 337 344 354 0 4 9 11 13 14 15 19 22 21 20 17 15 13 11 11 9 6 2 1 1 358 353 345 343 334 328 321 317 316 315 314 316 319
213 216 224 224 232 240 251 257 272 286 294 303 316 330 336 338 346 358 359 360 2 4 8 12 13 10 8 8 9 7 6 6 3 2 359 358 358 352 344 340 340 335 331 327 322 317 314 315 316
213 219 227 230 229 234 243 248 262 276 286 292 301 314 320 322 331 341 346 348 350 354 356 360 2 2 0 360 0 1 360 359 357 358 354 354 352 347 343 341 340 337 336 333 328 324 322 321 318
221 221 224 232 238 239 238 241 258 271 279 284 288 291 299 311 320 327 336 338 338 343 346 349 352 352 353 353 353 352 352 350 350 351 349 348 349 348 346 343 341 339 338 337 334 328 322 320 317
221 225 224 234 237 238 240 254 261 262 265 273 279 287 294 301 308 318 323 326 327 330 335 339 342 344 347 349 348 347 345 343 345 344 343 345 346 347 346 345 342 338 334 332 331 330 328 323 318
221 222 221 230 235 237 241 244 252 261 266 267 268 277 287 292 297 309 313 316 318 320 324 329 333 337 341 343 344 344 343 340 339 339 338 341 342 343 343 342 340 337 334 331 328 327 326 322 320
224 223 221 224 228 236 240 249 254 261 266 270 271 276 279 286 290 297 301 306 311 314 319 323 328 331 334 336 339 340 340 338 337 337 336 337 338 339 340 340 340 337 333 330 327 324 323 322 320
228 225 223 226 229 231 237 242 253 263 273 272 272 275 275 284 290 290 291 297 304 309 314 320 325 326 327 329 331 334 335 334 334 334 334 334 335 335 335 335 335 334 331 327 324 321 320 320 318